Find Kosmos-409

NORAD ID: 5180 Int'l Des: 1971-038 Owner: OKB10 Country: SU operational
LEOCIRCULAR

实时位置

正在加载3D地球...

关于 Kosmos-409

正在加载描述...

即将过境

Passes for default location (London). Set your location on the main map for personalized predictions.

高度历史

Loading altitude history...

两行轨道根数

1 05180U 71038A 26135.29521852 -.00000041 00000-0 -56108-4 0 9995
2 05180 74.0028 63.0369 0023298 317.1398 159.0166 13.17843818647919
Epoch: May 15, 2026 • Age: 23 hours

当前状态

高度 1183.6 km
速度 7.27 km/s
星下点 -17.66°S, 91.09°E
类型 other

Most Searched